Hlavní strana
METAR-TAF:

METAR-TAF

Letiště :

Carrollton, Georgie, Spojené státy americké

zeměpisná šířka: 33-37-54N, zeměpisná délka: 085-09-08W, výška: 354 m

Aktuální stav počasí

Zpráva byla vytvořena před 19 minutami, v 17:15 UTC
Severní vítr 8 kt
Teplota 5°C
Vlhkost vzduchu 100%
Tlak 1022 hPa
Viditelnost: 4.8 km
Zataženo ve výšce 600 ft
déšť

METAR: KCTJ 151715Z AUTO 35008KT 3SM RA OVC006 05/05 A3017 RMK AO2 T00520046

Čas: 12:34 (17:34 UTC)


TAF: chybějící

Stav a předpovědi počasí z více než 4 000 letišť (zprávy METAR a TAF).

Červené a žluté tečky na mapě představují dostupné meteorologické stanice.

Když kurzor umístíte na tečku, zobrazí se název stanice.

Pak kliknutím zobrazíte stav a předpověď počasí.

Chcete-li změnit mapu, kliknutím na zelené tlačítko se znaménkem +mapu přiblížíte, kliknutím na zelené tlačítko se znaménkem – mapu oddálíte a kliknutím na zelené šipky přejdete na sousední mapy.


METAR-TAF: